Retour au catalogue

STARLINK-32250

ActifCommunicationsVLEO
NORAD 60425·PAYLOAD·🇺🇸 United States

Lancé Aug 12, 2024 depuis Cape Canaveral Space Force Station

Loading…

Prochains Passages (prochaines 24 heures)

TLE

FraisSource: CelesTrak SupGP

Époque: Sep 15, 2026, 03:32 UTC

1 60425C 24144A   26258.14770833 -.00012701  00000+0 -37534-3 0  2583
2 60425  53.1580  54.4108 0001231  92.0574 290.5146 15.34390362    11

Suivez STARLINK-32250 en temps réel avec AllMySat

Download on the App Store